When you browse on this site, cookies collect data to enhance your experience and personalize the content and advertising you see.
Visit our Privacy Policy to learn more. By continuing to use the site, you agree to this use of cookies and data.

Stündliche Wetter Aylesbury

Heute, 9 August, Sonntag

Zeit Temperatur Niederschläge Wind Luftdruck Luftfeuchtigkeit
00:00 +18°C° 0 mm 4 m/S 757 mmHg 89%
01:00 +17°C° 0 mm 5 m/S 757 mmHg 89%
02:00 +17°C° 0 mm 5 m/S 757 mmHg 90%
03:00 +17°C° 0 mm 5 m/S 756 mmHg 90%
04:00 +17°C° 0 mm 5 m/S 756 mmHg 90%
05:00 +17°C° 0 mm 5 m/S 756 mmHg 90%
06:00 +18°C° 0 mm 4 m/S 757 mmHg 88%
07:00 +19°C° 0 mm 4 m/S 756 mmHg 85%
08:00 +20°C° 0 mm 4 m/S 756 mmHg 82%
09:00 +21°C° 0 mm 4 m/S 756 mmHg 79%
10:00 +23°C° 0 mm 4 m/S 756 mmHg 72%
11:00 +27°C° 0 mm 4 m/S 756 mmHg 65%
12:00 +28°C° 0 mm 3 m/S 756 mmHg 60%
13:00 +29°C° 0 mm 3 m/S 756 mmHg 57%
14:00 +30°C° 0 mm 3 m/S 755 mmHg 53%
15:00 +31°C° 0 mm 3 m/S 755 mmHg 49%
16:00 +30°C° 0 mm 3 m/S 755 mmHg 54%
17:00 +29°C° 0 mm 3 m/S 754 mmHg 58%
18:00 +29°C° 0 mm 3 m/S 754 mmHg 62%
19:00 +27°C° 0 mm 3 m/S 754 mmHg 69%
20:00 +25°C° 0 mm 4 m/S 754 mmHg 76%
21:00 +22°C° 0 mm 4 m/S 754 mmHg 84%
22:00 +21°C° 0 mm 4 m/S 754 mmHg 86%
23:00 +20°C° 0 mm 4 m/S 754 mmHg 88%

Morgen, 10 August, Montag

Zeit Temperatur Niederschläge Wind Luftdruck Luftfeuchtigkeit
00:00 +20°C° 0 mm 4 m/S 754 mmHg 91%
01:00 +19°C° 0 mm 4 m/S 753 mmHg 92%
02:00 +19°C° 0 mm 4 m/S 753 mmHg 93%
03:00 +18°C° 0 mm 4 m/S 753 mmHg 94%
04:00 +18°C° 0 mm 4 m/S 753 mmHg 92%
05:00 +19°C° 0 mm 4 m/S 752 mmHg 90%
06:00 +19°C° 0 mm 4 m/S 752 mmHg 89%
07:00 +20°C° 0 mm 5 m/S 752 mmHg 84%
08:00 +22°C° 0 mm 5 m/S 753 mmHg 79%
09:00 +23°C° 0 mm 5 m/S 753 mmHg 75%
10:00 +26°C° 0 mm 5 m/S 753 mmHg 70%
11:00 +28°C° 0 mm 4 m/S 753 mmHg 65%
12:00 +30°C° 0 mm 4 m/S 752 mmHg 60%
13:00 +32°C° 0 mm 4 m/S 752 mmHg 56%
14:00 +33°C° 0 mm 4 m/S 752 mmHg 52%
15:00 +34°C° 0 mm 4 m/S 752 mmHg 48%
16:00 +33°C° 0 mm 4 m/S 752 mmHg 52%
17:00 +32°C° 0 mm 4 m/S 752 mmHg 55%
18:00 +30°C° 0 mm 4 m/S 751 mmHg 59%
19:00 +28°C° 0 mm 4 m/S 752 mmHg 64%
20:00 +26°C° 0 mm 3 m/S 752 mmHg 70%
21:00 +24°C° 0 mm 3 m/S 752 mmHg 75%
22:00 +22°C° 0 mm 3 m/S 752 mmHg 78%
23:00 +23°C° 0 mm 2 m/S 752 mmHg 81%

übermorgen, 11 August, Dienstag

Zeit Temperatur Niederschläge Wind Luftdruck Luftfeuchtigkeit
00:00 +21°C° 0 mm 2 m/S 752 mmHg 84%
01:00 +21°C° 0 mm 2 m/S 752 mmHg 86%
02:00 +21°C° 0 mm 1 m/S 752 mmHg 88%
03:00 +21°C° 0 mm 1 m/S 752 mmHg 90%
04:00 +20°C° 0 mm 2 m/S 752 mmHg 89%
05:00 +21°C° 0 mm 2 m/S 752 mmHg 88%
06:00 +21°C° 0 mm 2 m/S 752 mmHg 87%
07:00 +24°C° 0 mm 2 m/S 752 mmHg 79%
08:00 +26°C° 0 mm 2 m/S 752 mmHg 72%
09:00 +28°C° 0 mm 1 m/S 753 mmHg 65%
10:00 +29°C° 0 mm 2 m/S 753 mmHg 59%
11:00 +31°C° 0 mm 2 m/S 753 mmHg 53%
12:00 +33°C° 0 mm 3 m/S 753 mmHg 48%
13:00 +34°C° 0 mm 3 m/S 753 mmHg 45%
14:00 +35°C° 0 mm 3 m/S 753 mmHg 43%
15:00 +35°C° 0 mm 4 m/S 752 mmHg 41%
16:00 +34°C° 0 mm 3 m/S 752 mmHg 44%
17:00 +32°C° 0 mm 2 m/S 752 mmHg 48%
18:00 +32°C° 0 mm 2 m/S 752 mmHg 52%
19:00 +30°C° 0 mm 2 m/S 752 mmHg 58%
20:00 +28°C° 0 mm 2 m/S 752 mmHg 63%
21:00 +26°C° 0 mm 2 m/S 752 mmHg 69%
22:00 +25°C° 0.1 mm 2 m/S 752 mmHg 72%
23:00 +24°C° 0.1 mm 2 m/S 752 mmHg 75%

12 August, Mittwoch

Zeit Temperatur Niederschläge Wind Luftdruck Luftfeuchtigkeit
00:00 +24°C° 0.1 mm 2 m/S 752 mmHg 78%
01:00 +23°C° 0.1 mm 1 m/S 752 mmHg 81%
02:00 +23°C° 0.1 mm 1 m/S 752 mmHg 83%
03:00 +20°C° 0.1 mm 0 m/S 751 mmHg 85%
04:00 +21°C° 0 mm 0 m/S 751 mmHg 85%
05:00 +23°C° 0 mm 1 m/S 751 mmHg 84%
06:00 +23°C° 0 mm 1 m/S 751 mmHg 84%
07:00 +25°C° 0 mm 1 m/S 751 mmHg 78%
08:00 +26°C° 0 mm 1 m/S 751 mmHg 72%
09:00 +28°C° 0 mm 1 m/S 752 mmHg 66%
10:00 +29°C° 0 mm 1 m/S 751 mmHg 60%
11:00 +31°C° 0 mm 1 m/S 751 mmHg 54%
12:00 +32°C° 0 mm 1 m/S 751 mmHg 49%
13:00 +33°C° 0 mm 1 m/S 751 mmHg 46%
14:00 +34°C° 0 mm 1 m/S 751 mmHg 43%
15:00 +34°C° 0 mm 1 m/S 750 mmHg 40%
16:00 +34°C° 0.3 mm 2 m/S 750 mmHg 47%
17:00 +31°C° 0.3 mm 3 m/S 750 mmHg 55%
18:00 +29°C° 0.3 mm 4 m/S 749 mmHg 62%
19:00 +28°C° 1.3 mm 4 m/S 749 mmHg 70%
20:00 +26°C° 1.3 mm 4 m/S 750 mmHg 79%
21:00 +23°C° 1.3 mm 4 m/S 750 mmHg 87%
22:00 +22°C° 0.4 mm 3 m/S 749 mmHg 88%
23:00 +22°C° 0.4 mm 3 m/S 749 mmHg 89%

13 August, Donnerstag

Zeit Temperatur Niederschläge Wind Luftdruck Luftfeuchtigkeit
00:00 +21°C° 0.4 mm 2 m/S 749 mmHg 90%
01:00 +21°C° 0.2 mm 2 m/S 748 mmHg 91%
02:00 +21°C° 0.2 mm 2 m/S 748 mmHg 91%
03:00 +21°C° 0.2 mm 2 m/S 747 mmHg 91%
04:00 +22°C° 0 mm 1 m/S 747 mmHg 91%
05:00 +22°C° 0 mm 1 m/S 747 mmHg 90%
06:00 +22°C° 0 mm 1 m/S 747 mmHg 90%
07:00 +23°C° 0 mm 1 m/S 747 mmHg 85%
08:00 +24°C° 0 mm 1 m/S 747 mmHg 81%
09:00 +25°C° 0 mm 2 m/S 747 mmHg 77%
10:00 +26°C° 0 mm 2 m/S 747 mmHg 73%
11:00 +27°C° 0 mm 2 m/S 747 mmHg 69%
12:00 +28°C° 0 mm 3 m/S 747 mmHg 66%
13:00 +27°C° 1 mm 3 m/S 747 mmHg 66%
14:00 +27°C° 1 mm 3 m/S 747 mmHg 66%
15:00 +27°C° 1 mm 3 m/S 747 mmHg 66%
16:00 +26°C° 1 mm 3 m/S 747 mmHg 68%
17:00 +26°C° 1 mm 3 m/S 747 mmHg 70%
18:00 +25°C° 1 mm 2 m/S 747 mmHg 72%
19:00 +24°C° 0.4 mm 2 m/S 747 mmHg 77%
20:00 +23°C° 0.4 mm 2 m/S 747 mmHg 81%
21:00 +20°C° 0.4 mm 2 m/S 747 mmHg 86%
22:00 +20°C° 0.3 mm 2 m/S 747 mmHg 87%
23:00 +21°C° 0.3 mm 1 m/S 747 mmHg 89%

14 August, Freitag

Zeit Temperatur Niederschläge Wind Luftdruck Luftfeuchtigkeit
00:00 +20°C° 0.3 mm 1 m/S 747 mmHg 90%
01:00 +20°C° 0.1 mm 1 m/S 747 mmHg 91%
02:00 +20°C° 0.1 mm 1 m/S 746 mmHg 92%
03:00 +19°C° 0.1 mm 2 m/S 746 mmHg 94%
04:00 +19°C° 0.2 mm 2 m/S 746 mmHg 93%
05:00 +19°C° 0.2 mm 2 m/S 747 mmHg 93%
06:00 +19°C° 0.2 mm 2 m/S 747 mmHg 93%
07:00 +19°C° 0.7 mm 3 m/S 747 mmHg 90%
08:00 +19°C° 0.7 mm 4 m/S 747 mmHg 88%
09:00 +19°C° 0.7 mm 5 m/S 748 mmHg 85%
10:00 +20°C° 0.1 mm 5 m/S 748 mmHg 79%
11:00 +21°C° 0.1 mm 5 m/S 748 mmHg 73%
12:00 +22°C° 0.1 mm 5 m/S 749 mmHg 67%
13:00 +23°C° 0.1 mm 5 m/S 749 mmHg 63%
14:00 +23°C° 0.1 mm 5 m/S 749 mmHg 60%
15:00 +23°C° 0.1 mm 6 m/S 749 mmHg 56%
16:00 +23°C° 0 mm 5 m/S 749 mmHg 59%
17:00 +22°C° 0 mm 5 m/S 750 mmHg 61%
18:00 +21°C° 0 mm 5 m/S 750 mmHg 63%
19:00 +20°C° 0 mm 4 m/S 750 mmHg 67%
20:00 +18°C° 0 mm 4 m/S 750 mmHg 70%
21:00 +16°C° 0 mm 3 m/S 751 mmHg 74%
22:00 +16°C° 0 mm 3 m/S 751 mmHg 76%
23:00 +16°C° 0 mm 3 m/S 751 mmHg 79%
Mehr zeigen